SCP
0 0 0 0 0 0 0 0 -0 -0 -0 -0 -0 0 0 0 0 0 0 0 0 1 0 0 0 0 0 0 1 1 1 1 1 1 0 0 0 0 0 1 1 0 1
0 0 0 0 -0 0 0 0 0 0 0 0 0 0 0 0 0 0 0 1 1 1 0 0 0 0 0 0 0 0 0 0 0 1 1 1 0 0 0 0 0 0 1
0 0 0 0 0 0 0 0 0 0 0 0 0 0 0 0 0 0 1 1 1 0 0 0 0 0 0 0 0 0 0 0 0 0 0 0 1 1 0 0 0 0 0
0 0 0 0 0 0 0 0 0 0 0 0 0 0 0 0 1 1 1 1 1 0 1 0 0 0 0 0 0 0 0 0 0 0 0 0 0 0 0 0 0 0 0
0 0 0 -0 0 0 0 0 0 0 0 0 0 0 0 0 1 1 1 1 1 1 0 0 0 0 0 0 0 0 0 0 0 0 0 0 0 0 0 0 0 0 0
0 0 0 -0 0 0 0 0 0 0 0 0 0 0 0 0 0 1 1 1 1 1 0 0 1 0 1 0 0 0 0 0 0 0 0 0 0 0 0 0 0 0 0
0 0 0 0 0 0 0 0 0 0 0 0 0 0 0 0 0 1 0 1 0 0 0 0 0 0 1 0 0 0 0 0 0 0 0 0 0 0 0 0 0 0 0
-0 0 0 0 0 0 -0 -0 0 0 0 0 0 0 0 0 0 0 0 0 0 1 1 0 0 0 0 0 1 0 0 0 0 0 0 0 0 0 0 0 0 0 0
0 0 0 0 0 0 0 0 0 0 0 0 0 0 0 0 0 0 0 0 1 1 1 0 0 0 0 0 0 0 0 0 0 0 0 0 0 0 0 0 0 0 0
-0 -0 0 0 0 0 0 0 0 0 0 0 0 0 0 0 0 0 0 0 0 0 0 0 0 0 0 0 0 0 0 0 0 0 0 0 0 0 0 0 0 0 0
0 0 0 0 0 0 0 0 0 0 0 0 0 0 0 0 0 0 0 0 0 0 0 0 0 0 0 0 0 0 0 0 0 0 0 0 0 0 0 0 0 0 0
-0 -0 0 0 0 0 0 0 0 0 0 0 0 0 0 0 0 0 0 0 0 0 0 0 0 0 0 0 0 0 0 0 0 -0 0 0 0 0 0 0 0 0 0
-0 -0 -0 0 0 0 0 0 0 0 0 0 0 0 0 0 0 0 0 0 0 0 0 0 0 0 0 0 0 0 0 0 0 0 0 0 0 0 0 0 0 0 1
-0 -0 -0 0 0 0 0 0 0 0 0 0 0 0 0 0 0 0 0 0 0 0 0 0 0 0 0 0 0 0 0 0 -0 -0 0 0 0 0 0 0 0 0 0
-0 0 0 0 0 0 0 0 0 0 0 0 0 0 0 0 0 0 0 0 0 0 0 0 0 0 0 0 0 0 0 -0 0 -0 0 0 0 0 0 0 0 0 0
-0 0 0 0 0 1 1 0 0 0 0 0 0 0 0 0 0 0 0 0 0 0 0 0 0 0 0 0 -0 -0 -0 -0 -0 -0 0 0 0 0 0 0 0 0 0
0 0 0 0 0 1 1 0 0 0 0 0 0 0 0 0 0 0 0 0 0 0 0 0 0 0 0 0 -0 -0 -0 -0 0 0 0 0 0 0 0 0 0 0 0
0 0 0 0 0 0 1 0 0 0 0 0 0 0 0 0 0 0 0 0 0 0 0 0 0 0 0 0 0 -0 0 0 0 0 0 0 0 0 0 0 0 -0 0
0 0 0 0 0 0 1 0 0 0 0 0 0 0 0 0 0 0 0 0 0 0 0 0 0 0 0 0 0 0 0 0 0 0 0 -0 -0 -0 0 -0 -0 0 0
0 0 0 0 0 0 0 0 0 0 0 0 0 0 0 0 0 0 0 0 0 0 0 0 0 0 0 0 0 0 0 0 0 0 0 0 -0 -0 -0 0 0 0 0
0 0 0 0 0 0 0 0 0 0 0 0 0 0 0 0 0 0 0 0 0 0 0 0 0 0 0 0 0 0 0 0 0 0 0 0 0 0 0 0 0 0 0
0 0 0 0 0 0 0 0 0 0 0 0 0 0 0 0 0 0 0 0 0 0 0 0 0 0 0 0 0 0 0 0 0 0 0 0 0 0 0 0 0 0 0
1 0 0 0 0 0 0 0 0 0 0 0 0 0 0 0 0 0 0 0 0 0 0 0 0 0 0 0 0 0 0 0 0 0 0 0 0 0 0 0 0 0 0
1 1 0 0 0 0 -0 0 0 0 0 0 0 0 0 0 0 0 0 0 0 0 0 0 0 0 0 0 0 0 0 0 0 0 0 0 0 0 0 0 0 0 0
0 0 0 0 0 0 0 0 0 0 0 0 0 0 0 0 0 0 0 0 0 0 0 0 0 0 0 0 0 0 0 0 0 0 0 0 0 0 0 0 0 0 0
0 -0 -0 -0 -0 0 0 0 0 0 0 0 0 0 0 0 0 0 0 0 0 0 0 0 0 0 0 0 0 0 0 0 0 0 0 0 0 0 0 0 0 0 0
Wind_Speed_500mb
13 13 15 12 9 9 14 18 19 14 6 7 3 11 6 3 13 10 7 12 20 23 25 22 14 11 6 4 8 13 19 25 30 34 39 44 46 49 51 48 46 41 42
13 12 13 14 13 8 13 19 21 8 8 5 7 10 7 7 10 7 8 3 16 23 23 21 16 11 12 10 7 9 11 14 19 26 30 37 43 45 54 58 55 61 50
15 18 17 18 15 9 15 22 10 6 7 7 9 7 9 15 15 14 11 4 8 12 13 18 24 25 30 31 21 14 12 13 15 15 20 24 33 43 49 58 57 55 52
19 16 21 23 15 12 18 20 9 9 14 11 10 10 14 16 20 23 21 15 10 10 11 6 12 17 23 23 31 25 17 19 18 14 19 23 24 30 43 60 58 59 52
13 20 24 23 22 17 26 20 13 10 14 16 18 17 21 21 26 26 27 26 21 18 12 5 8 3 6 11 14 17 15 17 23 19 14 18 27 31 37 40 43 62 50
12 18 29 26 22 26 22 19 13 15 19 26 21 19 24 27 27 32 34 34 30 25 23 18 16 11 11 7 4 11 17 19 24 23 15 17 22 32 35 40 41 45 53
7 16 25 30 28 26 24 22 16 18 23 26 22 21 23 31 32 32 34 41 39 31 27 22 22 20 24 20 14 8 15 25 30 32 16 15 19 25 37 38 41 48 54
9 14 20 30 26 26 23 19 21 25 26 22 19 19 12 22 33 30 31 41 43 40 32 33 35 37 32 25 27 20 15 21 24 21 21 17 17 20 32 37 38 42 49
7 13 17 24 27 24 26 24 23 27 28 25 21 14 10 9 23 25 28 31 39 41 42 44 44 43 40 35 27 18 24 22 18 20 20 18 18 19 25 36 38 40 45
12 12 15 17 25 25 25 26 29 28 28 27 26 25 22 25 14 15 17 23 31 33 39 45 56 50 44 44 19 14 19 21 18 21 20 15 14 24 24 33 33 40 42
9 14 16 15 21 25 23 25 22 28 29 28 30 26 24 26 24 25 25 15 23 28 30 36 41 46 43 3 12 13 19 17 17 19 20 13 15 18 20 33 29 36 46
13 13 16 17 18 28 25 25 27 27 28 28 30 31 28 26 28 25 27 25 26 25 21 14 18 30 12 3 10 16 16 17 18 21 20 13 10 8 16 23 25 32 43
20 16 23 21 20 27 24 25 25 29 29 31 30 31 31 27 26 27 29 28 26 22 14 9 7 9 6 7 10 15 14 13 22 21 19 9 7 5 16 18 21 31 39
26 23 24 15 19 24 21 21 25 28 31 33 33 34 32 30 26 27 28 29 31 17 10 6 7 11 10 11 10 10 12 17 26 22 17 4 6 10 9 21 22 27 37
29 26 23 17 20 23 22 23 25 25 28 31 34 36 35 32 29 26 27 28 26 15 6 4 3 12 13 9 14 14 16 24 26 17 13 5 8 12 15 16 28 27 34
34 27 25 25 25 26 27 26 26 24 24 26 33 40 39 34 32 28 28 29 26 19 7 8 8 8 13 9 15 15 21 27 19 15 8 11 6 7 13 17 27 37 38
35 36 37 37 35 33 31 30 28 25 24 24 27 36 39 35 34 30 31 30 23 16 12 6 8 6 8 9 11 19 27 20 16 17 4 14 12 10 18 23 23 36 54
37 39 41 46 42 40 37 34 31 28 22 23 25 33 35 33 33 30 31 29 20 15 11 8 9 6 5 4 15 22 25 17 18 15 14 16 9 18 31 45 46 42 61
41 39 40 41 44 44 42 38 33 30 22 21 24 31 31 31 30 29 28 25 19 16 8 5 7 5 4 5 14 22 25 20 18 17 23 13 17 29 42 52 38 51 74
45 45 45 45 44 44 44 42 38 31 24 21 22 30 29 30 27 25 25 22 19 18 12 6 1 8 7 5 13 20 21 19 17 20 22 23 35 42 14 7 15 30 80
42 46 49 50 51 51 48 45 37 31 29 22 19 27 27 29 20 21 23 21 20 17 11 3 4 8 8 6 11 18 17 15 18 20 24 33 52 57 24 27 20 24 70
41 42 50 51 49 45 43 40 37 35 28 26 17 22 24 24 16 17 19 20 23 18 10 5 7 10 7 5 8 17 20 12 16 24 34 42 53 80 36 39 31 25 69
35 39 46 47 49 45 38 41 40 36 29 26 16 20 19 18 12 13 15 18 24 23 12 8 9 14 11 6 8 14 16 20 23 26 35 47 60 76 71 48 46 45 57
39 43 43 44 43 42 36 38 34 32 26 25 18 19 20 16 11 8 9 14 21 22 16 12 15 17 12 8 8 12 14 23 24 23 38 53 57 72 80 67 55 57 72
44 45 44 50 40 36 33 29 31 29 28 26 19 20 19 17 11 5 3 9 17 21 19 14 13 15 11 6 10 14 15 17 28 27 37 44 53 65 73 76 85 79 67
60 53 76 47 45 39 33 28 28 26 28 30 23 25 20 19 15 7 3 5 13 19 20 18 13 13 12 11 11 19 18 23 23 28 28 41 40 55 69 64 63 76 89
Wind_Direction_500mb
56 43 28 11 2 355 11 357 344 355 356 317 276 288 278 31 86 107 71 41 26 10 354 8 30 34 28 297 260 251 245 246 246 246 241 234 231 226 220 211 208 212 212
32 34 31 2 343 332 331 331 334 325 332 246 298 285 251 240 196 173 212 18 19 14 19 29 25 19 13 355 317 282 266 261 254 246 240 236 234 229 225 210 213 220 213
54 39 22 7 13 2 327 323 332 316 291 278 319 285 246 248 254 240 244 266 348 354 24 46 50 56 43 33 10 347 326 309 293 275 257 242 229 222 219 217 211 216 211
45 33 15 11 344 327 330 340 327 295 301 281 304 292 255 259 254 245 252 258 269 273 336 20 58 54 43 47 46 45 41 28 4 321 274 259 240 226 222 223 210 209 213
32 27 11 4 360 342 341 341 335 345 325 319 312 285 258 251 252 263 260 251 269 262 264 301 288 82 47 49 40 44 37 21 10 348 298 268 249 238 232 232 218 215 217
23 19 16 11 359 352 358 353 346 321 318 313 303 290 261 256 266 265 262 254 262 256 259 268 303 256 246 274 335 357 356 346 343 338 304 273 254 240 231 233 229 224 220
6 7 11 10 7 360 4 11 359 335 318 312 311 299 278 256 260 272 265 260 258 264 266 292 267 232 245 246 238 265 325 331 334 328 309 288 267 244 229 225 224 221 220
30 4 358 7 2 10 8 1 359 354 349 337 328 308 297 278 267 265 263 262 258 262 274 277 256 250 238 246 245 250 285 316 326 329 312 302 277 254 230 221 220 219 219
342 348 341 355 358 4 12 11 7 3 357 348 340 337 317 292 309 276 280 261 257 263 268 268 263 250 242 245 245 254 323 315 333 324 315 307 269 247 238 223 221 217 216
300 319 323 346 348 358 8 3 10 5 3 357 347 336 329 315 316 313 307 278 260 265 270 266 263 259 249 246 233 333 322 335 334 316 326 317 278 243 243 220 223 217 213
301 299 305 324 336 345 357 9 3 1 1 357 352 345 340 328 320 313 312 293 280 290 295 278 256 254 248 293 351 327 328 325 324 333 337 319 279 247 235 215 224 217 211
273 284 302 301 316 324 335 351 0 359 357 352 354 349 342 340 334 329 321 322 309 312 326 325 269 254 235 1 356 336 335 322 335 342 340 313 263 238 200 204 220 213 208
255 268 275 293 285 308 321 335 348 351 350 349 352 351 345 337 333 328 326 324 319 314 315 302 284 233 190 42 354 342 323 342 344 345 345 311 292 215 200 201 203 204 200
260 262 273 264 257 292 307 327 338 345 345 346 349 350 349 346 339 330 326 328 325 312 304 315 229 231 298 15 318 328 348 350 348 347 339 251 250 262 222 208 197 198 197
258 262 271 243 256 280 295 310 327 331 339 341 348 349 351 350 345 336 331 334 337 328 319 261 226 261 294 342 358 342 345 346 344 343 332 305 260 261 258 213 200 193 194
256 255 250 251 260 273 285 300 319 323 333 332 348 347 351 350 348 345 338 335 334 341 324 288 262 277 264 323 343 343 343 346 341 340 325 330 265 282 281 251 211 203 194
258 256 251 256 264 270 279 294 310 318 323 339 331 341 344 348 349 347 343 339 334 321 321 294 249 251 276 354 332 350 346 349 351 360 336 345 321 290 289 277 232 216 202
263 261 254 251 261 268 274 286 301 312 310 323 321 335 337 346 347 346 347 350 344 327 306 294 226 245 312 32 4 347 356 355 18 23 6 1 354 309 287 278 257 227 209
264 263 258 254 258 266 270 280 293 301 300 303 318 323 326 343 344 347 351 2 8 15 1 325 280 249 101 44 353 2 13 25 30 47 21 25 351 328 305 286 257 216 201
263 262 260 260 261 264 268 274 283 288 291 286 308 312 322 337 340 348 353 8 7 7 2 341 72 111 72 37 12 15 30 47 55 55 35 42 5 356 312 172 133 173 188
265 265 263 262 262 263 268 272 275 276 283 284 288 301 314 329 335 351 0 12 10 1 19 2 128 135 91 29 20 11 2 28 63 56 55 40 29 32 82 88 61 154 176
259 266 261 263 262 262 266 268 267 265 269 274 288 297 305 321 331 348 2 16 12 4 40 69 121 142 120 49 1 6 10 37 63 47 66 52 42 45 70 89 68 103 167
259 264 262 261 263 262 264 264 259 260 264 262 272 285 292 306 313 341 0 21 18 21 47 80 116 128 114 85 3 20 48 75 89 50 75 60 53 51 66 96 98 101 130
264 266 269 266 264 266 263 253 252 250 254 252 249 260 278 287 278 322 5 21 24 36 60 90 114 114 109 97 43 55 71 103 98 72 79 67 62 61 61 100 113 110 129
245 250 269 270 268 271 259 249 247 245 248 250 240 244 257 277 244 273 357 23 34 41 62 111 132 119 110 74 80 85 77 98 110 105 82 80 70 68 67 69 103 121 126
271 260 299 280 271 268 262 246 245 243 246 240 231 231 238 261 221 223 215 51 36 43 65 91 115 112 108 96 90 116 93 94 108 114 109 94 84 77 72 73 76 109 130
Wind_Speed_850mb
13 13 15 12 9 9 14 18 19 14 6 7 3 11 6 3 13 10 7 12 20 23 25 22 14 11 6 4 8 13 19 25 30 34 39 44 46 49 51 48 46 41 42
13 12 13 14 13 8 13 19 21 8 8 5 7 10 7 7 10 7 8 3 16 23 23 21 16 11 12 10 7 9 11 14 19 26 30 37 43 45 54 58 55 61 50
15 18 17 18 15 9 15 22 10 6 7 7 9 7 9 15 15 14 11 4 8 12 13 18 24 25 30 31 21 14 12 13 15 15 20 24 33 43 49 58 57 55 52
19 16 21 23 15 12 18 20 9 9 14 11 10 10 14 16 20 23 21 15 10 10 11 6 12 17 23 23 31 25 17 19 18 14 19 23 24 30 43 60 58 59 52
13 20 24 23 22 17 26 20 13 10 14 16 18 17 21 21 26 26 27 26 21 18 12 5 8 3 6 11 14 17 15 17 23 19 14 18 27 31 37 40 43 62 50
12 18 29 26 22 26 22 19 13 15 19 26 21 19 24 27 27 32 34 34 30 25 23 18 16 11 11 7 4 11 17 19 24 23 15 17 22 32 35 40 41 45 53
7 16 25 30 28 26 24 22 16 18 23 26 22 21 23 31 32 32 34 41 39 31 27 22 22 20 24 20 14 8 15 25 30 32 16 15 19 25 37 38 41 48 54
9 14 20 30 26 26 23 19 21 25 26 22 19 19 12 22 33 30 31 41 43 40 32 33 35 37 32 25 27 20 15 21 24 21 21 17 17 20 32 37 38 42 49
7 13 17 24 27 24 26 24 23 27 28 25 21 14 10 9 23 25 28 31 39 41 42 44 44 43 40 35 27 18 24 22 18 20 20 18 18 19 25 36 38 40 45
12 12 15 17 25 25 25 26 29 28 28 27 26 25 22 25 14 15 17 23 31 33 39 45 56 50 44 44 19 14 19 21 18 21 20 15 14 24 24 33 33 40 42
9 14 16 15 21 25 23 25 22 28 29 28 30 26 24 26 24 25 25 15 23 28 30 36 41 46 43 3 12 13 19 17 17 19 20 13 15 18 20 33 29 36 46
13 13 16 17 18 28 25 25 27 27 28 28 30 31 28 26 28 25 27 25 26 25 21 14 18 30 12 3 10 16 16 17 18 21 20 13 10 8 16 23 25 32 43
20 16 23 21 20 27 24 25 25 29 29 31 30 31 31 27 26 27 29 28 26 22 14 9 7 9 6 7 10 15 14 13 22 21 19 9 7 5 16 18 21 31 39
26 23 24 15 19 24 21 21 25 28 31 33 33 34 32 30 26 27 28 29 31 17 10 6 7 11 10 11 10 10 12 17 26 22 17 4 6 10 9 21 22 27 37
29 26 23 17 20 23 22 23 25 25 28 31 34 36 35 32 29 26 27 28 26 15 6 4 3 12 13 9 14 14 16 24 26 17 13 5 8 12 15 16 28 27 34
34 27 25 25 25 26 27 26 26 24 24 26 33 40 39 34 32 28 28 29 26 19 7 8 8 8 13 9 15 15 21 27 19 15 8 11 6 7 13 17 27 37 38
35 36 37 37 35 33 31 30 28 25 24 24 27 36 39 35 34 30 31 30 23 16 12 6 8 6 8 9 11 19 27 20 16 17 4 14 12 10 18 23 23 36 54
37 39 41 46 42 40 37 34 31 28 22 23 25 33 35 33 33 30 31 29 20 15 11 8 9 6 5 4 15 22 25 17 18 15 14 16 9 18 31 45 46 42 61
41 39 40 41 44 44 42 38 33 30 22 21 24 31 31 31 30 29 28 25 19 16 8 5 7 5 4 5 14 22 25 20 18 17 23 13 17 29 42 52 38 51 74
45 45 45 45 44 44 44 42 38 31 24 21 22 30 29 30 27 25 25 22 19 18 12 6 1 8 7 5 13 20 21 19 17 20 22 23 35 42 14 7 15 30 80
42 46 49 50 51 51 48 45 37 31 29 22 19 27 27 29 20 21 23 21 20 17 11 3 4 8 8 6 11 18 17 15 18 20 24 33 52 57 24 27 20 24 70
41 42 50 51 49 45 43 40 37 35 28 26 17 22 24 24 16 17 19 20 23 18 10 5 7 10 7 5 8 17 20 12 16 24 34 42 53 80 36 39 31 25 69
35 39 46 47 49 45 38 41 40 36 29 26 16 20 19 18 12 13 15 18 24 23 12 8 9 14 11 6 8 14 16 20 23 26 35 47 60 76 71 48 46 45 57
39 43 43 44 43 42 36 38 34 32 26 25 18 19 20 16 11 8 9 14 21 22 16 12 15 17 12 8 8 12 14 23 24 23 38 53 57 72 80 67 55 57 72
44 45 44 50 40 36 33 29 31 29 28 26 19 20 19 17 11 5 3 9 17 21 19 14 13 15 11 6 10 14 15 17 28 27 37 44 53 65 73 76 85 79 67
60 53 76 47 45 39 33 28 28 26 28 30 23 25 20 19 15 7 3 5 13 19 20 18 13 13 12 11 11 19 18 23 23 28 28 41 40 55 69 64 63 76 89
Wind_Direction_850mb
56 43 28 11 2 355 11 357 344 355 356 317 276 288 278 31 86 107 71 41 26 10 354 8 30 34 28 297 260 251 245 246 246 246 241 234 231 226 220 211 208 212 212
32 34 31 2 343 332 331 331 334 325 332 246 298 285 251 240 196 173 212 18 19 14 19 29 25 19 13 355 317 282 266 261 254 246 240 236 234 229 225 210 213 220 213
54 39 22 7 13 2 327 323 332 316 291 278 319 285 246 248 254 240 244 266 348 354 24 46 50 56 43 33 10 347 326 309 293 275 257 242 229 222 219 217 211 216 211
45 33 15 11 344 327 330 340 327 295 301 281 304 292 255 259 254 245 252 258 269 273 336 20 58 54 43 47 46 45 41 28 4 321 274 259 240 226 222 223 210 209 213
32 27 11 4 360 342 341 341 335 345 325 319 312 285 258 251 252 263 260 251 269 262 264 301 288 82 47 49 40 44 37 21 10 348 298 268 249 238 232 232 218 215 217
23 19 16 11 359 352 358 353 346 321 318 313 303 290 261 256 266 265 262 254 262 256 259 268 303 256 246 274 335 357 356 346 343 338 304 273 254 240 231 233 229 224 220
6 7 11 10 7 360 4 11 359 335 318 312 311 299 278 256 260 272 265 260 258 264 266 292 267 232 245 246 238 265 325 331 334 328 309 288 267 244 229 225 224 221 220
30 4 358 7 2 10 8 1 359 354 349 337 328 308 297 278 267 265 263 262 258 262 274 277 256 250 238 246 245 250 285 316 326 329 312 302 277 254 230 221 220 219 219
342 348 341 355 358 4 12 11 7 3 357 348 340 337 317 292 309 276 280 261 257 263 268 268 263 250 242 245 245 254 323 315 333 324 315 307 269 247 238 223 221 217 216
300 319 323 346 348 358 8 3 10 5 3 357 347 336 329 315 316 313 307 278 260 265 270 266 263 259 249 246 233 333 322 335 334 316 326 317 278 243 243 220 223 217 213
301 299 305 324 336 345 357 9 3 1 1 357 352 345 340 328 320 313 312 293 280 290 295 278 256 254 248 293 351 327 328 325 324 333 337 319 279 247 235 215 224 217 211
273 284 302 301 316 324 335 351 0 359 357 352 354 349 342 340 334 329 321 322 309 312 326 325 269 254 235 1 356 336 335 322 335 342 340 313 263 238 200 204 220 213 208
255 268 275 293 285 308 321 335 348 351 350 349 352 351 345 337 333 328 326 324 319 314 315 302 284 233 190 42 354 342 323 342 344 345 345 311 292 215 200 201 203 204 200
260 262 273 264 257 292 307 327 338 345 345 346 349 350 349 346 339 330 326 328 325 312 304 315 229 231 298 15 318 328 348 350 348 347 339 251 250 262 222 208 197 198 197
258 262 271 243 256 280 295 310 327 331 339 341 348 349 351 350 345 336 331 334 337 328 319 261 226 261 294 342 358 342 345 346 344 343 332 305 260 261 258 213 200 193 194
256 255 250 251 260 273 285 300 319 323 333 332 348 347 351 350 348 345 338 335 334 341 324 288 262 277 264 323 343 343 343 346 341 340 325 330 265 282 281 251 211 203 194
258 256 251 256 264 270 279 294 310 318 323 339 331 341 344 348 349 347 343 339 334 321 321 294 249 251 276 354 332 350 346 349 351 360 336 345 321 290 289 277 232 216 202
263 261 254 251 261 268 274 286 301 312 310 323 321 335 337 346 347 346 347 350 344 327 306 294 226 245 312 32 4 347 356 355 18 23 6 1 354 309 287 278 257 227 209
264 263 258 254 258 266 270 280 293 301 300 303 318 323 326 343 344 347 351 2 8 15 1 325 280 249 101 44 353 2 13 25 30 47 21 25 351 328 305 286 257 216 201
263 262 260 260 261 264 268 274 283 288 291 286 308 312 322 337 340 348 353 8 7 7 2 341 72 111 72 37 12 15 30 47 55 55 35 42 5 356 312 172 133 173 188
265 265 263 262 262 263 268 272 275 276 283 284 288 301 314 329 335 351 0 12 10 1 19 2 128 135 91 29 20 11 2 28 63 56 55 40 29 32 82 88 61 154 176
259 266 261 263 262 262 266 268 267 265 269 274 288 297 305 321 331 348 2 16 12 4 40 69 121 142 120 49 1 6 10 37 63 47 66 52 42 45 70 89 68 103 167
259 264 262 261 263 262 264 264 259 260 264 262 272 285 292 306 313 341 0 21 18 21 47 80 116 128 114 85 3 20 48 75 89 50 75 60 53 51 66 96 98 101 130
264 266 269 266 264 266 263 253 252 250 254 252 249 260 278 287 278 322 5 21 24 36 60 90 114 114 109 97 43 55 71 103 98 72 79 67 62 61 61 100 113 110 129
245 250 269 270 268 271 259 249 247 245 248 250 240 244 257 277 244 273 357 23 34 41 62 111 132 119 110 74 80 85 77 98 110 105 82 80 70 68 67 69 103 121 126
271 260 299 280 271 268 262 246 245 243 246 240 231 231 238 261 221 223 215 51 36 43 65 91 115 112 108 96 90 116 93 94 108 114 109 94 84 77 72 73 76 109 130